Franklin, PA

7:47 AM EST on January 24, 2018 (GMT -0500)
Venango Regional

Weather History for KFKL - April, 2014

Change the Weather History Date:

Tuesday, April 15, 2014

  Actual Average Record
Temperature  
Mean Temperature 41 °F -  
Max Temperature 59 °F 59 °F 82 °F (2002)
Min Temperature 23 °F 34 °F 18 °F (1926)
Degree Days  
Heating Degree Days 24    
Moisture  
Dew Point 28 °F    
Average Humidity 79    
Maximum Humidity 87    
Minimum Humidity 64    
Precipitation  
Precipitation 0.20 in - - ()
Sea Level Pressure  
Sea Level Pressure 29.82 in    
Wind  
Wind Speed 9 mph (WNW)    
Max Wind Speed 15 mph    
Max Gust Speed 24 mph    
Visibility 6 miles    
Events      
Averages and records for this station are not official NWS values.
T = Trace of Precipitation, MM = Missing Value Source: NWS Daily Summary

Daily Weather History Graph

Daily Weather History Graph

Search for Another Location

Airport or City:

Trip Planner

Search our weather history database for the weather conditions in past years. The results will help you decide how hot, cold, wet, or windy it might be!

Date:

Astronomy

Apr. 15, 2014 Rise Set
Actual Time 6:39 AM EDT 7:59 PM EDT
Civil Twilight 6:11 AM EDT 8:28 PM EDT
Nautical Twilight 5:36 AM EDT 9:03 PM EDT
Astronomical Twilight 5:00 AM EDT 9:39 PM EDT
Moon 8:39 PM EDT (4/15) 6:46 AM EDT (4/15)
Length of Visible Light 14h 17m
Length of Day
13h 19m
Full, 100% of the Moon is Illuminated
Apr 15
Full
Apr 22
Last Quarter
Apr 29
New
May 6
First Quarter
May 14
Full

Hourly Weather History & Observations

Time (EDT) Temp. Windchill Dew Point Humidity Pressure Visibility Wind Dir Wind Speed Gust Speed Precip Events Conditions
12:15 AM 57.2 °F - 51.8 °F 82% 29.64 in 10.0 mi SSW 5.8 mph - N/A   Overcast
12:35 AM 59.0 °F - 51.8 °F 77% 29.64 in 10.0 mi SSW 4.6 mph - N/A   Overcast
12:55 AM 57.2 °F - 51.8 °F 82% 29.63 in 10.0 mi South 9.2 mph - N/A   Mostly Cloudy
1:15 AM 57.2 °F - 51.8 °F 82% 29.62 in 10.0 mi South 10.4 mph - N/A   Overcast
1:35 AM 57.2 °F - 51.8 °F 82% 29.61 in 10.0 mi South 10.4 mph - N/A   Overcast
1:55 AM 57.2 °F - 51.8 °F 82% 29.60 in 10.0 mi South 8.1 mph - N/A   Mostly Cloudy
2:15 AM 57.2 °F - 51.8 °F 82% 29.59 in 10.0 mi South 8.1 mph - N/A   Overcast
2:35 AM 57.2 °F - 51.8 °F 82% 29.59 in 10.0 mi SW 6.9 mph - N/A   Overcast
2:55 AM 53.6 °F - 48.2 °F 82% 29.59 in 10.0 mi WNW 6.9 mph 18.4 mph N/A   Overcast
3:15 AM 50.0 °F - 46.4 °F 87% 29.59 in 1.2 mi WNW 5.8 mph - N/A   Overcast
3:35 AM 46.4 °F 44.3 °F 42.8 °F 87% 29.58 in 0.2 mi NW 4.6 mph - N/A   Overcast
3:55 AM 46.4 °F 43.5 °F 42.8 °F 87% 29.57 in 0.2 mi NW 5.8 mph - N/A   Overcast
4:15 AM 44.6 °F 39.2 °F 41.0 °F 87% 29.59 in 0.2 mi WNW 10.4 mph 16.1 mph N/A   Overcast
4:35 AM 41.0 °F 34.3 °F 37.4 °F 87% 29.59 in 0.2 mi WNW 11.5 mph - N/A   Overcast
4:55 AM 39.2 °F 31.6 °F 35.6 °F 87% 29.60 in 0.5 mi WNW 12.7 mph 18.4 mph N/A   Overcast
5:15 AM 37.4 °F 28.9 °F 33.8 °F 87% 29.61 in 2.0 mi WNW 13.8 mph 20.7 mph N/A   Overcast
5:35 AM 35.6 °F 28.6 °F 32.0 °F 87% 29.59 in 4.0 mi NNW 9.2 mph 19.6 mph N/A   Overcast
5:55 AM 35.6 °F 28.6 °F 32.0 °F 87% 29.63 in 7.0 mi WNW 9.2 mph - 0.01 in   Overcast
6:15 AM 33.8 °F 26.4 °F 30.2 °F 87% 29.63 in 9.0 mi NW 9.2 mph 16.1 mph 0.03 in   Overcast
6:35 AM 33.8 °F 26.4 °F 28.4 °F 81% 29.63 in 5.0 mi NNW 9.2 mph - 0.06 in   Overcast
6:55 AM 33.8 °F 27.0 °F 28.4 °F 81% 29.65 in 10.0 mi NW 8.1 mph 18.4 mph 0.06 in   Overcast
7:15 AM 33.8 °F 26.4 °F 28.4 °F 81% 29.66 in 10.0 mi NW 9.2 mph - N/A   Overcast
7:35 AM 32.0 °F 24.2 °F 28.4 °F 87% 29.67 in 3.0 mi NW 9.2 mph - N/A   Overcast
7:55 AM 32.0 °F 23.6 °F 28.4 °F 87% 29.67 in 2.5 mi NW 10.4 mph 17.3 mph 0.01 in   Overcast
8:15 AM 32.0 °F 24.2 °F 28.4 °F 87% 29.67 in 3.0 mi NW 9.2 mph - 0.02 in   Overcast
8:35 AM 33.8 °F 25.8 °F 28.4 °F 81% 29.70 in 7.0 mi WNW 10.4 mph - 0.03 in   Overcast
8:55 AM 32.0 °F 24.2 °F 26.6 °F 80% 29.71 in 2.5 mi NW 9.2 mph 16.1 mph 0.05 in   Overcast
9:15 AM 30.2 °F 21.3 °F 26.6 °F 86% 29.72 in 1.8 mi NW 10.4 mph 19.6 mph N/A   Overcast
9:35 AM 30.2 °F 21.3 °F 26.6 °F 86% 29.73 in 1.0 mi NW 10.4 mph - N/A   Overcast
9:55 AM 30.2 °F 21.9 °F 26.6 °F 86% 29.74 in 1.2 mi NW 9.2 mph 20.7 mph N/A   Overcast
10:15 AM 30.2 °F 20.8 °F 26.6 °F 86% 29.76 in 1.8 mi NW 11.5 mph 17.3 mph 0.01 in   Overcast
10:35 AM 30.2 °F 21.3 °F 24.8 °F 80% 29.78 in 3.0 mi NW 10.4 mph 17.3 mph 0.02 in   Overcast
10:55 AM 30.2 °F 22.6 °F 24.8 °F 80% 29.78 in 3.0 mi NW 8.1 mph 20.7 mph 0.03 in   Mostly Cloudy
11:15 AM 30.2 °F 19.8 °F 26.6 °F 86% 29.79 in 9.0 mi NW 13.8 mph 23.0 mph N/A   Overcast
11:35 AM 30.2 °F 21.9 °F 24.8 °F 80% 29.83 in 9.0 mi WNW 9.2 mph 24.2 mph 0.02 in   Overcast
11:55 AM 30.2 °F 21.9 °F 24.8 °F 80% 29.83 in 1.2 mi NW 9.2 mph 19.6 mph 0.03 in   Overcast
12:15 PM 30.2 °F 21.9 °F 24.8 °F 80% 29.81 in 4.0 mi NW 9.2 mph 18.4 mph N/A   Mostly Cloudy
12:55 PM 30.2 °F 21.9 °F 24.8 °F 80% 29.83 in 5.0 mi NW 9.2 mph 17.3 mph 0.01 in   Overcast
1:15 PM 30.2 °F 22.6 °F 24.8 °F 80% 29.82 in 1.5 mi WNW 8.1 mph 19.6 mph N/A   Overcast
1:55 PM 30.2 °F 21.9 °F 24.8 °F 80% 29.85 in 2.5 mi WNW 9.2 mph - N/A   Overcast
2:15 PM 30.2 °F 20.2 °F 23.0 °F 75% 29.88 in 8.0 mi WNW 12.7 mph 17.3 mph N/A   Mostly Cloudy
2:35 PM 28.4 °F 17.0 °F 21.2 °F 74% 29.91 in 10.0 mi NW 15.0 mph 23.0 mph N/A   Overcast
2:55 PM 28.4 °F 18.5 °F 21.2 °F 74% 29.91 in 10.0 mi WNW 11.5 mph 20.7 mph N/A   Overcast
3:15 PM 28.4 °F 18.0 °F 21.2 °F 74% 29.90 in 10.0 mi NW 12.7 mph 16.1 mph N/A   Overcast
3:35 PM 28.4 °F 22.2 °F 21.2 °F 74% 29.89 in 10.0 mi WNW 5.8 mph 19.6 mph N/A   Overcast
3:55 PM 28.4 °F 18.0 °F 21.2 °F 74% 29.92 in 6.0 mi NW 12.7 mph 17.3 mph N/A   Overcast
4:15 PM 28.4 °F 17.5 °F 21.2 °F 74% 29.93 in 10.0 mi WNW 13.8 mph 20.7 mph N/A   Overcast
4:35 PM 28.4 °F 18.5 °F 19.4 °F 69% 29.92 in 5.0 mi NW 11.5 mph 18.4 mph N/A   Overcast
4:55 PM 26.6 °F 18.2 °F 21.2 °F 80% 29.93 in 1.8 mi NW 8.1 mph - N/A   Overcast
5:15 PM 26.6 °F 15.7 °F 21.2 °F 80% 29.93 in 3.0 mi WNW 12.7 mph 21.9 mph N/A   Overcast
5:35 PM 26.6 °F 17.5 °F 19.4 °F 74% 29.96 in 5.0 mi WNW 9.2 mph 16.1 mph N/A   Overcast
5:55 PM 26.6 °F 16.2 °F 19.4 °F 74% 29.98 in 3.0 mi WNW 11.5 mph 19.6 mph N/A   Overcast
6:15 PM 26.6 °F 16.8 °F 19.4 °F 74% 29.99 in 5.0 mi WNW 10.4 mph 17.3 mph N/A   Mostly Cloudy
6:35 PM 26.6 °F 16.2 °F 19.4 °F 74% 30.00 in 1.5 mi NW 11.5 mph 24.2 mph N/A   Overcast
6:55 PM 26.6 °F 17.5 °F 19.4 °F 74% 29.99 in 2.5 mi WNW 9.2 mph 17.3 mph N/A   Overcast
7:15 PM 26.6 °F 16.2 °F 19.4 °F 74% 29.99 in 3.0 mi WNW 11.5 mph 24.2 mph N/A   Overcast
7:35 PM 26.6 °F 16.8 °F 17.6 °F 69% 30.02 in 10.0 mi WNW 10.4 mph 17.3 mph N/A   Overcast
7:55 PM 26.6 °F 16.8 °F 15.8 °F 64% 30.03 in 10.0 mi WNW 10.4 mph 17.3 mph N/A   Overcast
8:15 PM 26.6 °F 18.2 °F 15.8 °F 64% 30.05 in 10.0 mi NW 8.1 mph 16.1 mph N/A   Overcast
8:35 PM 26.6 °F 18.2 °F 15.8 °F 64% 30.06 in 10.0 mi NW 8.1 mph 17.3 mph N/A   Mostly Cloudy
8:55 PM 26.6 °F 18.2 °F 15.8 °F 64% 30.08 in 10.0 mi NW 8.1 mph - N/A   Overcast
9:15 PM 26.6 °F 16.2 °F 15.8 °F 64% 30.09 in 6.0 mi NW 11.5 mph 18.4 mph N/A   Mostly Cloudy
9:35 PM 24.8 °F 17.9 °F 17.6 °F 74% 30.11 in 3.0 mi NW 5.8 mph - N/A   Overcast
9:55 PM 24.8 °F 16.1 °F 17.6 °F 74% 30.11 in 10.0 mi NW 8.1 mph - N/A   Mostly Cloudy
10:15 PM 24.8 °F 17.9 °F 17.6 °F 74% 30.12 in 10.0 mi NW 5.8 mph - N/A   Mostly Cloudy
10:35 PM 24.8 °F 16.1 °F 17.6 °F 74% 30.13 in 10.0 mi NW 8.1 mph - N/A   Mostly Cloudy
10:55 PM 24.8 °F 15.3 °F 15.8 °F 69% 30.14 in 10.0 mi NW 9.2 mph 16.1 mph N/A   Scattered Clouds
11:15 PM 23.0 °F 17.0 °F 15.8 °F 74% 30.15 in 10.0 mi NW 4.6 mph - N/A   Clear
11:35 PM 23.0 °F 15.8 °F 15.8 °F 74% 30.15 in 10.0 mi NW 5.8 mph - N/A   Clear
11:55 PM 23.0 °F 14.7 °F 15.8 °F 74% 30.15 in 10.0 mi NNW 6.9 mph - N/A   Partly Cloudy